Duncan, OK

2:58 PM CST on December 11, 2019 (GMT -0600)
Halliburton

Weather History for KDUC - November, 2019

Change the Weather History Date:

Saturday, November 16, 2019

  Actual Average (KLAW) Record (KLAW)
Temperature  
Mean Temperature 49 °F -  
Max Temperature 64 °F 60 °F 84 °F (1952)
Min Temperature 34 °F 35 °F 14 °F (1932)
Degree Days  
Heating Degree Days 16    
Moisture  
Dew Point 33 °F    
Average Humidity 57    
Maximum Humidity 82    
Minimum Humidity 31    
Precipitation  
Precipitation 0.00 in - - ()
Sea Level Pressure  
Sea Level Pressure 30.14 in    
Wind  
Wind Speed 9 mph ()    
Max Wind Speed 17 mph    
Max Gust Speed 23 mph    
Visibility 10.0 miles    
Events      
Averages and records for this station are not official NWS values.
T = Trace of Precipitation, MM = Missing Value Source: Averaged Metar Reports

Daily Weather History Graph

Daily Weather History Graph

Search for Another Location

Airport or City:

Astronomy

Nov. 16, 2019 Rise Set
Actual Time 7:06 AM CST 5:26 PM CST
Civil Twilight 6:39 AM CST 5:53 PM CST
Nautical Twilight 6:08 AM CST 6:23 PM CST
Astronomical Twilight 5:38 AM CST 6:53 PM CST
Moon 9:05 PM CST (11/16) 10:56 AM CST (11/16)
Length of Visible Light 11h 14m
Length of Day
10h 20m
Waning Gibbous, 82% of the Moon is Illuminated
Nov 16
Waning Gibbous
Nov 19
Last Quarter
Nov 26
New
Dec 4
First Quarter
Dec 11
Full

Hourly Weather History & Observations

Time (CST) Temp. Windchill Dew Point Humidity Pressure Visibility Wind Dir Wind Speed Gust Speed Precip Events Conditions
12:10 AM 37.2 °F 31.9 °F 29.7 °F 74% 30.26 in 10.0 mi ESE 6.9 mph - N/A   Clear
12:30 AM 37.6 °F 33.1 °F 29.8 °F 74% 30.26 in 10.0 mi SE 5.8 mph - N/A   Clear
12:50 AM 38.8 °F 35.4 °F 29.8 °F 70% 30.26 in 10.0 mi SE 4.6 mph - N/A   Clear
1:10 AM 39.0 °F 34.8 °F 30.0 °F 70% 30.25 in 10.0 mi SSE 5.8 mph - N/A   Clear
1:30 AM 38.1 °F 33.7 °F 29.7 °F 72% 30.25 in 10.0 mi SE 5.8 mph - N/A   Clear
1:50 AM 37.6 °F 32.3 °F 30.0 °F 74% 30.24 in 10.0 mi SE 6.9 mph - N/A   Clear
2:10 AM 37.8 °F 34.2 °F 29.8 °F 73% 30.24 in 10.0 mi ESE 4.6 mph - N/A   Clear
2:30 AM 37.2 °F 32.6 °F 30.0 °F 75% 30.23 in 10.0 mi ESE 5.8 mph - N/A   Clear
2:50 AM 37.0 °F 32.4 °F 30.0 °F 76% 30.23 in 10.0 mi ESE 5.8 mph - N/A   Clear
3:50 AM 35.6 °F 29.9 °F 29.8 °F 80% 30.23 in 10.0 mi ESE 6.9 mph - N/A   Clear
4:10 AM 35.6 °F 29.9 °F 29.7 °F 79% 30.22 in 10.0 mi ESE 6.9 mph - N/A   Clear
4:30 AM 35.6 °F 30.7 °F 29.7 °F 79% 30.22 in 10.0 mi ESE 5.8 mph - N/A   Clear
5:10 AM 34.9 °F 29.0 °F 29.7 °F 81% 30.22 in 10.0 mi ESE 6.9 mph - N/A   Clear
5:30 AM 34.7 °F 29.6 °F 29.5 °F 81% 30.22 in 10.0 mi ESE 5.8 mph - N/A   Clear
5:50 AM 34.9 °F 29.9 °F 29.3 °F 80% 30.22 in 10.0 mi ESE 5.8 mph - N/A   Clear
6:10 AM 34.9 °F 29.9 °F 29.5 °F 81% 30.23 in 10.0 mi ESE 5.8 mph - N/A   Clear
6:30 AM 34.7 °F 29.6 °F 29.3 °F 81% 30.23 in 10.0 mi ESE 5.8 mph - N/A   Clear
6:50 AM 34.5 °F 28.6 °F 29.1 °F 81% 30.23 in 10.0 mi ESE 6.9 mph - N/A   Clear
7:10 AM 34.0 °F 28.0 °F 29.1 °F 82% 30.23 in 10.0 mi ESE 6.9 mph - N/A   Clear
7:30 AM 35.4 °F 29.7 °F 29.7 °F 80% 30.22 in 10.0 mi SE 6.9 mph - N/A   Clear
8:10 AM 41.4 °F 36.8 °F 33.1 °F 72% 30.23 in 10.0 mi SSE 6.9 mph - N/A   Clear
8:30 AM 44.2 °F 39.2 °F 33.3 °F 65% 30.22 in 10.0 mi SSE 9.2 mph - N/A   Clear
8:50 AM 46.2 °F 41.2 °F 33.4 °F 61% 30.22 in 10.0 mi SSE 10.4 mph - N/A   Clear
9:10 AM 47.7 °F - 34.0 °F 59% 30.22 in 10.0 mi South 12.7 mph - N/A   Clear
9:30 AM 49.1 °F - 34.3 °F 57% 30.22 in 10.0 mi South 11.5 mph - N/A   Clear
9:50 AM 51.3 °F - 34.5 °F 53% 30.22 in 10.0 mi South 13.8 mph - N/A   Clear
10:10 AM 53.8 °F - 35.2 °F 50% 30.22 in 10.0 mi SSE 11.5 mph - N/A   Clear
10:30 AM 57.0 °F - 35.6 °F 45% 30.21 in 10.0 mi South 15.0 mph - N/A   Clear
10:50 AM 57.4 °F - 35.1 °F 43% 30.20 in 10.0 mi South 13.8 mph - N/A   Clear
11:30 AM 60.6 °F - 35.4 °F 39% 30.18 in 10.0 mi SSE 17.3 mph - N/A   Clear
11:50 AM 61.5 °F - 34.9 °F 37% 30.16 in 10.0 mi SSE 17.3 mph - N/A   Clear
12:10 PM 62.1 °F - 34.5 °F 36% 30.15 in 10.0 mi South 15.0 mph - N/A   Clear
12:30 PM 63.1 °F - 34.5 °F 34% 30.14 in 10.0 mi SSE 15.0 mph 21.9 mph N/A   Clear
12:50 PM 63.5 °F - 34.2 °F 33% 30.12 in 10.0 mi South 16.1 mph 23.0 mph N/A   Clear
1:10 PM 63.7 °F - 34.2 °F 33% 30.11 in 10.0 mi South 17.3 mph - N/A   Clear
1:50 PM 64.0 °F - 33.8 °F 32% 30.09 in 10.0 mi South 17.3 mph - N/A   Clear
2:10 PM 63.1 °F - 33.4 °F 33% 30.07 in - SSE 17.3 mph - N/A   Clear
2:30 PM 63.0 °F - 31.6 °F 31% 30.07 in 10.0 mi SSE 13.8 mph 20.7 mph N/A   Clear
2:50 PM 63.0 °F - 32.0 °F 31% 30.06 in 10.0 mi SSE 16.1 mph - N/A   Clear
3:10 PM 62.8 °F - 31.3 °F 31% 30.05 in 10.0 mi SSE 17.3 mph - N/A   Clear
3:30 PM 62.8 °F - 31.8 °F 31% 30.05 in 10.0 mi SE 16.1 mph - N/A   Clear
3:50 PM 61.5 °F - 31.3 °F 32% 30.05 in 10.0 mi SSE 15.0 mph - N/A   Clear
4:10 PM 60.6 °F - 31.8 °F 34% 30.05 in 10.0 mi SSE 11.5 mph - N/A   Clear
4:30 PM 59.2 °F - 32.5 °F 37% 30.04 in 10.0 mi SSE 12.7 mph - N/A   Clear
4:50 PM 58.3 °F - 32.7 °F 38% 30.04 in 10.0 mi SE 11.5 mph - N/A   Clear
5:30 PM 55.8 °F - 33.3 °F 43% 30.05 in 10.0 mi SE 9.2 mph - N/A   Clear
5:50 PM 54.9 °F - 34.2 °F 46% 30.05 in 10.0 mi SE 10.4 mph - N/A   Clear
6:10 PM 53.8 °F - 34.3 °F 48% 30.05 in 10.0 mi SE 13.8 mph - N/A   Clear
6:30 PM 53.4 °F - 34.2 °F 48% 30.05 in 10.0 mi SE 15.0 mph - N/A   Clear
6:50 PM 53.2 °F - 34.3 °F 49% 30.04 in 10.0 mi SE 13.8 mph - N/A   Clear
7:10 PM 52.9 °F - 34.5 °F 50% 30.05 in 10.0 mi SE 12.7 mph - N/A   Clear
7:30 PM 52.7 °F - 34.7 °F 50% 30.04 in 10.0 mi SE 15.0 mph - N/A   Clear
8:10 PM 51.6 °F - 34.5 °F 52% 30.05 in 10.0 mi SE 11.5 mph - N/A   Clear
8:30 PM 50.4 °F - 34.5 °F 55% 30.04 in 10.0 mi SE 11.5 mph - N/A   Clear
8:50 PM 50.2 °F - 34.5 °F 55% 30.04 in 10.0 mi SE 11.5 mph - N/A   Clear
9:10 PM 48.9 °F - 34.5 °F 58% 30.04 in 10.0 mi SE 9.2 mph - N/A   Clear
9:30 PM 48.7 °F - 34.5 °F 58% 30.04 in 10.0 mi SE 9.2 mph - N/A   Clear
9:50 PM 48.0 °F - 34.5 °F 60% 30.05 in 10.0 mi SE 9.2 mph - N/A   Clear
10:10 PM 47.3 °F - 34.5 °F 61% 30.04 in 10.0 mi SE 10.4 mph - N/A   Clear
10:30 PM 46.6 °F - 34.3 °F 62% 30.05 in 10.0 mi SE 9.2 mph - N/A   Clear
10:50 PM 45.1 °F 41.4 °F 34.2 °F 65% 30.05 in 10.0 mi ESE 6.9 mph - N/A   Clear
11:30 PM 43.2 °F 39.0 °F 34.0 °F 70% 30.05 in 10.0 mi East 6.9 mph - N/A   Clear
11:50 PM 43.0 °F 39.5 °F 33.8 °F 70% 30.05 in 10.0 mi East 5.8 mph - N/A   Clear